CHINASAT 9

导读

CHINASAT 9即中星9号,是中国于2008年6月9日在西昌卫星发射中心通过长征三号乙运载火箭发射的广播电视直播卫星,由法国泰雷兹阿莱尼亚宇航公司制造,采用Spacebus4000卫星平台,定点于东经92.2度地球同步轨道。它覆盖中国全境含港澳台,提供22个BSS频段转发器直播服务,是大功率、高可靠、长寿命卫星,支撑了村村通户户通工程,解决偏远地区覆盖盲区,助力公共文化服务均等化。

Basic Information
目录编号:
33051
目录名称:
CHINASAT 9
国际标识:
2008-028A
轨道中心:
EARTH
卫星名称:
CHINASAT 9
卫星全名:
--
卫星状态:
在轨 (已飞行6671 天)
发射日期:
2008-06-09 UTC
国别 :
中国 (CN)
星等 :
--
This satellite is enrolled in the Space Conjunction Data Service (SCDS) and the current flight risk assessment level is: No High Risk
Orbit Information
数据来源 国际轨道数据 AOE轨道数据
星历时间 2026-09-14T06:50:50+0800
8小时前
查看轨道信息
2026-09-13T05:00:00+0800
1天前
查看轨道信息
半长轴 42164.336km 42164.364km
偏心率 0.0005468 0.0004948
轨道倾角 0.990° 0.987°
近地点辐角 111.973° 112.031°
升交点赤经 84.040° 84.044°
平近点角 232.011° 203.173°
近地点 35763.143km 35765.364km
远地点 35809.255km 35807.09km
周期 1436.077分钟 1436.078分钟
每日圈数 1.002732 1.002731
Detailed Information
使用方式:
暂无
2D Orbit Map
3D Orbit Map
Orbit Altitude Analysis Chart
Orbit Inclination Analysis Chart
Orbit Comprehensive Analysis Chart
View Comprehensive Chart
Conjunction Data List
Event ID Objects TCA Miss Dist (km) Collision Risk Probability Collision Risk Index (CRI) Action
CDM_260916-111503-305105-820424
TJS-10 (58204)
2026-09-16T
11:15:18+0000
1.985 km
极远距离
4.139724E-7 极低风险 0.27
Miss Distance Evolution Trend with All Objects Subscribe to Flight Safety Assessment
Collision Probability Evolution Trend with All Objects Subscribe to Flight Safety Assessment